Location: Bakov nad Jizerou
(50.4784°N, 14.9394°E)
Time: 00:38:25
(UTC+00:00)

Cosmos 1328 Rocket - Visible Passes

Search period start: 15 August 2022 00:00
Search period end: 25 August 2022 00:00
Orbit: 600 x 627 km, 82.5° (Epoch: 14 August)

Date Brightness Start Highest point End Pass type
(mag) Time Alt. Az. Time Alt. Az. Time Alt. Az.
15 Aug 3.5 19:27:07 10° N 19:31:26 68° ENE 19:35:34 11° SSE visible
15 Aug 6.2 21:06:17 10° NW 21:08:38 14° W 21:10:58 10° WSW visible
16 Aug 3.7 19:42:44 10° NNW 19:47:03 72° W 19:51:21 10° S visible
17 Aug 4.6 19:58:31 10° NNW 20:02:36 42° W 20:06:40 10° SSW visible
18 Aug 5.5 20:14:29 10° NNW 20:18:04 26° W 20:21:38 10° SW visible
19 Aug 3.6 18:51:53 10° N 18:56:11 61° ENE 19:00:28 10° SSE visible
19 Aug 6.2 20:30:48 10° NW 20:33:27 16° W 20:36:05 10° WSW visible
20 Aug 3.6 19:07:28 10° NNW 19:11:49 80° W 19:16:09 10° S visible
21 Aug 4.5 19:23:13 10° NNW 19:27:22 47° W 19:31:32 10° SSW visible
22 Aug 5.5 19:39:09 10° NNW 19:42:51 28° W 19:46:34 10° SSW visible
23 Aug 6.2 19:55:21 10° NW 19:58:15 18° W 20:01:10 10° SW visible
24 Aug 3.6 18:32:13 10° N 18:36:35 88° WSW 18:40:56 10° S visible
24 Aug 6.7 20:12:33 10° WNW 20:13:35 11° W 20:14:37 10° W visible
